Regional Weather Roundup
Issued by NWS

Home | Current Version | Previous Version | Graphics & Text | Print | Product List | Glossary On
Versions: 1 2 3 4 5 6 7 8 9 10 11 12 13 14 15 16 17 18 19 20 21 22 23 24 25 26 27 28 29 30 31 32 33 34 35 36 37 38 39 40 41 42 43 44 45 46 47 48 49 50
000
ASUS44 KMEG 301510
RWRTN
TENNESSEE HOURLY STATE WEATHER ROUNDUP
NATIONAL WEATHER SERVICE MEMPHIS TN
1000 AM CDT SAT AUG 30 2014

TNZ002-004-019-021-049-052-054-088>092-301600-
WEST TENNESSEE

CITY           SKY/WX    TMP DP  RH WIND       PRES   REMARKS
MEMPHIS INTL   LGT RAIN  79  73  83 S6        30.05R
NWS MEMPHIS      N/A     78 N/A N/A MISG        N/A
JACKSON        LGT RAIN  75  72  90 W5        30.05F
DYERSBURG      CLOUDY    75  64  69 CALM      30.06S
UNION CITY     SUNNY     77  72  83 S7        30.04R
PARIS          SUNNY     73  70  88 SW7       30.07S
HUNTINGDON     CLOUDY    73  70  91 SW3       30.07S
LEXINGTON      SUNNY     75  72  88 CALM      30.07R
SAVANNAH       CLOUDY    72  72 100 CALM      30.09R
$$

TNZ008-025-027-028-033-062-065-066-301600-
NORTH MIDDLE TENNESSEE

CITY           SKY/WX    TMP DP  RH WIND       PRES   REMARKS
NASHVILLE      CLOUDY    80  67  64 S5        30.10R
DICKSON        PTSUNNY   73  68  83 SW9       30.09R
PORTLAND       PTSUNNY   81  66  61 S8        30.08R
CLARKSVILLE    PTSUNNY   79  68  69 SW12      30.06R
LEBANON        PTSUNNY   81  65  58 S3        30.08R
SMYRNA         CLOUDY    77  68  73 S5        30.11R
COOKEVILLE     SUNNY     81  68  65 SE5       30.13R
LIVINGSTON     PTSUNNY   80  63  56 SW7       30.14
GALLATIN       PTSUNNY   78  69  73 S3        30.10R
CROSSVILLE     PTSUNNY   79  63  57 S5        30.19R
$$

TNZ061-075-076-078-094-096-097-301600-
SOUTH MIDDLE TENNESSEE

CITY           SKY/WX    TMP DP  RH WIND       PRES   REMARKS
LEWISBURG      PTSUNNY   78  66  66 CALM      30.10R
FAYETTEVILLE   SUNNY     77  66  69 S7        30.12S
TULLAHOMA      MOSUNNY   79  66  65 S3        30.14R
WINCHESTER     MOSUNNY   79  66  65 S5        30.13S
MCMINNVILLE    MOSUNNY   79  72  78 CALM      30.13R
COLUMBIA         N/A     79  72  78 W3        30.09R
SHELBYVILLE    PTSUNNY   81  70  69 VRB5      30.12S
$$

TNZ017-018-042-046-047-301600-
NORTHEAST TENNESSEE

CITY           SKY/WX    TMP DP  RH WIND       PRES   REMARKS
TRI CITIES     SUNNY     81  67  62 E3        30.21S
ELIZABETHTON   SUNNY     81  64  57 VRB6      30.22S
$$

TNZ012-013-036-069-073-074-301600-
CENTRAL EAST TENNESSEE

CITY           SKY/WX    TMP DP  RH WIND       PRES   REMARKS
KNOXVILLE      MOSUNNY   81  68  64 CALM      30.15S
OAK RIDGE      MOSUNNY   82  68  62 CALM      30.17S
GATLINBURG     MOSUNNY   84  64  51 CALM      30.15S
MORRISTOWN     SUNNY     82  66  57 E6        30.18S
$$

TNZ083-085-099-301600-
SOUTHEAST TENNESSEE

CITY           SKY/WX    TMP DP  RH WIND       PRES   REMARKS
CHATTANOOGA    CLOUDY    80  64  58 S3        30.15R
$$

SKY/WX REPORTED AS FAIR MEANS FEW OR NO CLOUDS BELOW
12 THOUSAND FEET.



USA.gov is the U.S. government's official web portal to all federal, state and local government web resources and services.